DAL240 KBOS-LGAV

Flight info

Callsign DAL240
Flight time N/A
Altitude 37000
Route CELTK7 CELTK DCT FRILL DCT BRADD N261B NICSO/M080F390 NATW GISTI/N0454F390 DCT AMDEP/M080F390 DCT TAKAS/N0465F390 DCT ALUTA DCT KORER DCT LEMKA DCT BEBIX DCT LERGA DCT TOZOT DCT OTROT DCT RETNO DCT KOLON DCT RAPUR DCT RATAP DCT BTA DCT DOKAR DCT SUNEV DCT LATAN DCT ARA UY144 NEMES
Aircraft A333/H-SDE3GHIJ2J3J5M1RVWXY/LB2D1

Departure

Time 2026-05-04 02:41
Airport Boston Logan International Airport (KBOS)

Arrival

Time N/A
Airport Athens Eleftherios Venizelos International Airport (LGAV)
Time Latitude Longitude Altitude Speed Heading
2026-05-04 01:59 42.37141 -71.02496 29 ft 0 kts 225°
2026-05-04 02:18 42.37144 -71.02492 29 ft 3 kts 225°
2026-05-04 02:18 42.37163 -71.02465 28 ft 4 kts 228°
2026-05-04 02:19 42.37180 -71.02440 28 ft 3 kts 227°
2026-05-04 02:19 42.37198 -71.02422 27 ft 4 kts 176°
2026-05-04 02:19 42.37218 -71.02437 27 ft 4 kts 133°
2026-05-04 02:19 42.37225 -71.02446 27 ft 0 kts 135°
2026-05-04 02:24 42.37223 -71.02445 29 ft 0 kts 135°
2026-05-04 02:24 42.37220 -71.02440 29 ft 1 kts 135°
2026-05-04 02:24 42.37211 -71.02428 29 ft 3 kts 135°
2026-05-04 02:24 42.37197 -71.02410 29 ft 3 kts 135°
2026-05-04 02:25 42.37176 -71.02381 29 ft 6 kts 135°
2026-05-04 02:25 42.37151 -71.02337 29 ft 6 kts 120°
2026-05-04 02:25 42.37141 -71.02284 29 ft 6 kts 90°
2026-05-04 02:25 42.37157 -71.02238 29 ft 6 kts 53°
2026-05-04 02:26 42.37176 -71.02212 29 ft 6 kts 44°
2026-05-04 02:26 42.37215 -71.02161 29 ft 6 kts 47°
2026-05-04 02:26 42.37235 -71.02110 29 ft 6 kts 75°
2026-05-04 02:26 42.37236 -71.02052 29 ft 6 kts 95°
2026-05-04 02:27 42.37232 -71.02011 29 ft 6 kts 99°
2026-05-04 02:27 42.37230 -71.02002 29 ft 1 kts 100°
2026-05-04 02:27 42.37232 -71.01970 29 ft 5 kts 78°
2026-05-04 02:27 42.37252 -71.01930 29 ft 5 kts 44°
2026-05-04 02:28 42.37280 -71.01897 29 ft 6 kts 45°
2026-05-04 02:28 42.37293 -71.01846 29 ft 7 kts 93°
2026-05-04 02:28 42.37264 -71.01784 29 ft 9 kts 132°
2026-05-04 02:28 42.37219 -71.01722 29 ft 11 kts 135°
2026-05-04 02:29 42.37156 -71.01637 29 ft 14 kts 135°
2026-05-04 02:29 42.37089 -71.01546 29 ft 13 kts 135°
2026-05-04 02:29 42.37023 -71.01459 29 ft 13 kts 135°
2026-05-04 02:29 42.36957 -71.01371 29 ft 13 kts 135°
2026-05-04 02:30 42.36891 -71.01282 29 ft 13 kts 135°
2026-05-04 02:30 42.36828 -71.01196 29 ft 13 kts 135°
2026-05-04 02:30 42.36749 -71.01143 29 ft 12 kts 175°
2026-05-04 02:30 42.36669 -71.01171 29 ft 12 kts 200°
2026-05-04 02:31 42.36592 -71.01211 29 ft 12 kts 201°
2026-05-04 02:31 42.36515 -71.01248 29 ft 12 kts 199°
2026-05-04 02:31 42.36439 -71.01284 29 ft 11 kts 200°
2026-05-04 02:31 42.36371 -71.01317 29 ft 10 kts 194°
2026-05-04 02:32 42.36320 -71.01284 29 ft 8 kts 131°
2026-05-04 02:32 42.36290 -71.01217 29 ft 8 kts 120°
2026-05-04 02:32 42.36258 -71.01141 29 ft 10 kts 117°
2026-05-04 02:32 42.36229 -71.01054 29 ft 10 kts 113°
2026-05-04 02:33 42.36200 -71.00966 29 ft 10 kts 114°
2026-05-04 02:33 42.36170 -71.00878 29 ft 10 kts 114°
2026-05-04 02:33 42.36135 -71.00771 30 ft 15 kts 112°
2026-05-04 02:33 42.36101 -71.00642 30 ft 15 kts 109°
2026-05-04 02:34 42.36067 -71.00507 29 ft 15 kts 109°
2026-05-04 02:34 42.36033 -71.00374 29 ft 15 kts 109°
2026-05-04 02:34 42.36002 -71.00255 29 ft 12 kts 109°
2026-05-04 02:34 42.35979 -71.00162 29 ft 10 kts 110°
2026-05-04 02:35 42.35946 -71.00079 29 ft 10 kts 124°
2026-05-04 02:35 42.35901 -71.00008 29 ft 10 kts 133°
2026-05-04 02:35 42.35851 -70.99942 29 ft 10 kts 136°
2026-05-04 02:35 42.35800 -70.99874 29 ft 10 kts 135°
2026-05-04 02:36 42.35748 -70.99806 29 ft 10 kts 135°
2026-05-04 02:36 42.35697 -70.99737 29 ft 10 kts 135°
2026-05-04 02:36 42.35645 -70.99667 29 ft 11 kts 135°
2026-05-04 02:36 42.35593 -70.99597 29 ft 11 kts 135°
2026-05-04 02:37 42.35541 -70.99528 29 ft 11 kts 135°
2026-05-04 02:37 42.35494 -70.99456 29 ft 9 kts 117°
2026-05-04 02:37 42.35492 -70.99373 29 ft 9 kts 78°
2026-05-04 02:37 42.35505 -70.99295 29 ft 6 kts 77°
2026-05-04 02:38 42.35518 -70.99268 28 ft 1 kts 28°
2026-05-04 02:38 42.35526 -70.99270 29 ft 2 kts 352°
2026-05-04 02:38 42.35545 -70.99284 29 ft 3 kts 325°
2026-05-04 02:38 42.35549 -70.99289 29 ft 0 kts 319°
2026-05-04 02:39 42.35550 -70.99290 29 ft 0 kts 319°
2026-05-04 02:39 42.35626 -70.99382 29 ft 39 kts 317°
2026-05-04 02:40 42.35946 -70.99814 29 ft 90 kts 315°
2026-05-04 02:40 42.36507 -71.00561 29 ft 135 kts 315°
2026-05-04 02:40 42.37261 -71.01573 60 ft 168 kts 314°
2026-05-04 02:40 42.38091 -71.02680 576 ft 167 kts 313°
2026-05-04 02:41 42.38768 -71.03935 1123 ft 168 kts 298°
2026-05-04 02:41 42.39345 -71.05365 1513 ft 179 kts 297°
2026-05-04 02:41 42.39938 -71.06900 1836 ft 190 kts 296°
2026-05-04 02:41 42.40524 -71.08581 2087 ft 205 kts 289°
2026-05-04 02:42 42.40724 -71.10550 2313 ft 224 kts 265°
2026-05-04 02:42 42.40133 -71.12577 2670 ft 242 kts 238°
2026-05-04 02:42 42.39060 -71.14378 3249 ft 250 kts 233°
2026-05-04 02:42 42.37948 -71.16209 3909 ft 252 kts 236°
2026-05-04 02:43 42.36894 -71.18100 4636 ft 254 kts 233°
2026-05-04 02:43 42.35449 -71.19524 5330 ft 267 kts 207°
2026-05-04 02:43 42.33568 -71.19836 6030 ft 284 kts 177°
2026-05-04 02:43 42.31626 -71.19068 6648 ft 296 kts 164°
2026-05-04 02:44 42.29681 -71.18073 7295 ft 301 kts 164°
2026-05-04 02:44 42.27704 -71.17096 7962 ft 304 kts 166°
2026-05-04 02:44 42.25694 -71.16156 8642 ft 307 kts 167°
2026-05-04 02:44 42.23690 -71.15037 9227 ft 322 kts 150°
2026-05-04 02:45 42.22037 -71.12925 9791 ft 333 kts 133°
2026-05-04 02:45 42.20464 -71.10599 10359 ft 339 kts 136°
2026-05-04 02:45 42.18766 -71.08302 10689 ft 353 kts 138°
2026-05-04 02:45 42.17031 -71.05849 10957 ft 370 kts 125°
2026-05-04 02:46 42.15958 -71.02675 11242 ft 381 kts 99°
2026-05-04 02:46 42.15776 -70.99116 11631 ft 382 kts 79°
2026-05-04 02:46 42.16209 -70.95592 12190 ft 383 kts 73°
2026-05-04 02:46 42.16737 -70.92071 12796 ft 385 kts 74°
2026-05-04 02:47 42.17211 -70.88504 13473 ft 387 kts 75°
2026-05-04 02:47 42.17659 -70.84921 14092 ft 388 kts 76°
2026-05-04 02:47 42.18104 -70.81316 14605 ft 392 kts 76°
2026-05-04 02:47 42.18553 -70.77672 15096 ft 395 kts 76°
2026-05-04 02:48 42.19005 -70.74001 15590 ft 399 kts 76°
2026-05-04 02:48 42.19459 -70.70300 16072 ft 402 kts 76°
2026-05-04 02:48 42.19917 -70.66561 16569 ft 405 kts 76°
2026-05-04 02:48 42.20377 -70.62789 17061 ft 409 kts 76°
2026-05-04 02:49 42.20839 -70.58998 17541 ft 412 kts 76°
2026-05-04 02:49 42.21302 -70.55177 18017 ft 415 kts 77°
2026-05-04 02:49 42.21770 -70.51317 18421 ft 419 kts 77°
2026-05-04 02:49 42.22242 -70.47409 18769 ft 424 kts 77°
2026-05-04 02:50 42.22714 -70.43481 19195 ft 426 kts 77°
2026-05-04 02:50 42.23188 -70.39526 19617 ft 428 kts 77°
2026-05-04 02:50 42.23664 -70.35547 20034 ft 431 kts 77°
2026-05-04 02:50 42.24142 -70.31543 20423 ft 433 kts 77°
2026-05-04 02:51 42.24620 -70.27520 20835 ft 436 kts 77°
2026-05-04 02:51 42.25100 -70.23470 21230 ft 438 kts 77°
2026-05-04 02:51 42.25580 -70.19407 21628 ft 440 kts 77°
2026-05-04 02:51 42.26056 -70.15362 22018 ft 443 kts 77°